Welcome to the New NWS' Forecast!
Most changes are behind the scenes, but click here for differences you might notice.
Latest weather observations around

Los Angeles, Los Angeles International Airport (KLAX)

Using English Units (Switch to International System of Units)
Date/ Time (PST) Wind (mph) Vis. (mi) Weather Sky Cond. Temp (°F) Rel. Humidity Wind Chill (°F) Heat Index (°F) Pressure Precip. (in)
Air Dwpt 6 hour Altimeter (inHg) Sea level (inHg) 1 hr 3 hr 6 hr
Max Min
Nov 17 23:53 WSW 3 10 Clear CLR 62 56     80%     30.11 30.1      
Nov 17 22:53 E 6 10 Clear CLR 60 55     83%     30.1 30.09      
Nov 17 21:53 WSW 6 10 Clear CLR 62 55     78%     30.09 30.08      
Nov 17 20:53 W 9 10 Clear CLR 63 56     78%     30.08 30.07      
Nov 17 19:53 WSW 13 10 Mostly Clear FEW023 64 58     81%     30.06 30.06      
Nov 17 18:53 WSW 13 10 Mostly Clear FEW025 64 58     81%     30.04 30.03      
Nov 17 17:53 WSW 10 10 Partly Cloudy FEW024 SCT250 64 61     90%     30.04 30.03      
Nov 17 16:53 WSW 9 10 Partly Cloudy FEW010 SCT050 65 60     84%     30.02 30.02      
Nov 17 15:53 WSW 11 10 Partly Cloudy FEW010 FEW060 SCT120 66 60     81%     30.03 30.02      
Nov 17 14:53 WSW 13 10 Mostly Cloudy FEW010 FEW060 SCT120 BKN280 67 61     81%     30.03 30.02      
Nov 17 13:53 WSW 16 10 Mostly Cloudy FEW010 FEW065 SCT100 SCT140 BKN280 69 60     73%     30.03 30.02      
Nov 17 12:53 WSW 13 10 Mostly Cloudy FEW015 FEW070 SCT100 SCT150 BKN280 69 60     73%     30.04 30.03      
Nov 17 11:53 WSW 11 10 Mostly Cloudy FEW017 FEW070 SCT140 BKN280 69 61     75%     30.06 30.05      
Nov 17 10:53 WSW 11 10 Mostly Cloudy FEW012 FEW090 SCT140 BKN250 69 61     75%     30.08 30.07      
Nov 17 09:53 W 11 10 Mostly Cloudy FEW010 FEW080 SCT140 BKN250 68 62     81%     30.09 30.08     0
Nov 17 08:53 W 10 10 Mostly Cloudy FEW012 FEW075 SCT120 BKN220 66 63     90%     30.08 30.08      
Nov 17 07:53 W 13 10 Cloudy FEW070 FEW120 OVC140 64 62     93%     30.06 30.06      
Nov 17 06:53 W 13 10 Cloudy FEW014 SCT045 OVC065 64 61     90%     30.04 30.03 0 0  
Nov 17 05:53 Calm 10 Cloudy FEW012 FEW050 SCT110 OVC140 65 59     81%     30.01 30 0    
Nov 17 04:53 W 5 10 Light Rain FEW040 FEW070 OVC100 64 60     87%     30 30 0    
Nov 17 03:53 WSW 7 10 Mostly Cloudy FEW075 BKN110 64 59     84%     30 29.99     0
Nov 17 02:53 SW 3 10 Mostly Cloudy FEW085 BKN110 65 57     76%     29.99 29.98 0    
Nov 17 01:53 W 8 10 Mostly Cloudy FEW085 BKN110 66 58     75%     29.98 29.97      
Nov 17 00:53 WSW 6 10 Mostly Cloudy FEW028 FEW085 BKN110 66 56     70%     29.98 29.97      
Nov 16 23:53 5 10 Mostly Cloudy FEW024 SCT085 BKN120 67 57     71%     29.97 29.96      
Nov 16 22:53 3 10 Mostly Cloudy BKN085 BKN120 66 57     73%     29.98 29.97      
Nov 16 21:53 WSW 7 10 Mostly Cloudy SCT095 BKN120 66 58     75%     29.99 29.98      
Nov 16 20:53 W 7 10 Mostly Cloudy SCT100 BKN120 68 54     61%     29.99 29.98      
Nov 16 19:53 NW 3 10 Cloudy BKN100 OVC150 71 54     55%   70 29.97 29.97      
Nov 16 18:53 W 11 10 Mostly Cloudy BKN100 BKN150 67 57     71%     29.97 29.96      
Nov 16 17:53 W 9 10 Mostly Cloudy BKN100 BKN150 BKN200 69 55     61%     29.96 29.95      
Nov 16 16:53 W 10 10 Mostly Cloudy BKN090 BKN150 BKN200 67 57     71%     29.95 29.95      
Nov 16 15:53 W 13 10 Mostly Cloudy FEW060 SCT100 SCT150 BKN200 69 54     59%     29.94 29.93      
Nov 16 14:53 W 10 10 Mostly Cloudy FEW060 FEW110 SCT150 BKN200 71 54     55%   70 29.93 29.93      
Nov 16 13:53 W 11 9 Mostly Cloudy FEW060 FEW110 SCT160 BKN250 72 50     46%   71 29.94 29.94      
Nov 16 12:53 W 10 8 Mostly Cloudy FEW070 FEW120 SCT160 BKN250 72 50     46%   71 29.95 29.95      
Nov 16 11:53 W 11 8 Mostly Cloudy FEW070 FEW110 SCT160 BKN250 73 54     51%   72 29.97 29.96      
Nov 16 10:53 Calm 8 Mostly Cloudy FEW070 FEW120 SCT160 BKN250 76 47     36%   75 29.97 29.97      
Nov 16 09:53 Calm 8 Mostly Cloudy FEW045 SCT120 BKN160 BKN250 74 48     40%   73 29.98 29.97      
Nov 16 08:53 NNW 5 8 Mostly Cloudy FEW030 SCT120 BKN160 BKN250 68 56     65%     29.98 29.97      
Nov 16 07:53 Calm 8 Mostly Cloudy FEW027 FEW120 BKN160 BKN220 66 51     59%     29.97 29.96      
Nov 16 06:53 NW 5 8 Mostly Cloudy FEW025 FEW120 BKN150 BKN200 64 48     56%     29.96 29.95      
Nov 16 05:53 N 3 10 Mostly Cloudy FEW020 FEW120 BKN150 BKN200 66 47     50%     29.94 29.94      
Nov 16 04:53 E 3 10 Mostly Cloudy FEW020 SCT160 BKN250 61 51     70%     29.94 29.93      
Nov 16 03:53 ESE 5 10 Partly Cloudy FEW018 FEW150 SCT200 60 53     78%     29.93 29.92      
Nov 16 02:53 Calm 10 Partly Cloudy FEW018 FEW150 SCT200 62 54     75%     29.94 29.93      
Nov 16 01:53 Calm 10 Mostly Cloudy FEW018 FEW150 BKN200 62 55     78%     29.95 29.94      
Nov 16 00:53 E 3 10 Mostly Cloudy FEW018 FEW150 BKN200 62 55     78%     29.96 29.95      
Nov 15 23:53 ENE 6 10 Mostly Cloudy FEW018 SCT150 BKN200 63 57     81%     29.97 29.96      
Nov 15 22:53 Calm 10 Mostly Cloudy FEW018 SCT150 BKN200 65 58     78%     29.97 29.96      
Nov 15 21:53 W 3 10 Mostly Clear FEW150 FEW200 64 57     78%     29.97 29.96      
Nov 15 20:53 3 10 Partly Cloudy SCT150 SCT200 64 57     78%     29.97 29.96      
Nov 15 19:53 W 7 10 Partly Cloudy FEW150 SCT200 65 55     70%     29.96 29.96      
Nov 15 18:53 WSW 6 10 Mostly Cloudy BKN150 BKN200 66 56     70%     29.96 29.96      
Nov 15 17:53 WSW 8 10 Partly Cloudy SCT150 SCT250 65 59     81%     29.97 29.96      
Nov 15 16:53 W 5 10 Mostly Clear FEW150 FEW250 69 54     59%     29.94 29.94      
Nov 15 15:53 W 8 10 Mostly Clear FEW150 FEW250 70 58     66%     29.94 29.93      
Nov 15 14:53 W 9 10 Partly Cloudy SCT150 SCT250 71 56     59%   71 29.94 29.94      
Nov 15 13:53 WSW 10 9 Partly Cloudy FEW050 FEW100 SCT160 SCT250 72 53     51%   71 29.95 29.94      
Nov 15 12:53 WSW 9 8 Mostly Cloudy FEW050 SCT160 BKN250 73 53     50%   72 29.94 29.94      
Nov 15 11:53 WSW 7 8 Mostly Cloudy FEW047 SCT160 BKN250 74 57     56%   74 29.96 29.96      
Nov 15 10:53 SSE 6 8 Mostly Cloudy FEW035 SCT160 BKN250 75 46     36%   74 29.99 29.98      
Nov 15 09:53 E 5 9 Mostly Cloudy FEW028 SCT160 BKN250 72 45     38%   71 29.99 29.98      
Nov 15 08:53 5 9 Mostly Cloudy FEW027 SCT140 BKN250 69 48     47%     29.98 29.98      
Nov 15 07:53 Calm 10 Mostly Cloudy FEW025 BKN150 BKN250 63 53     70%     29.99 29.99      
Nov 15 06:53 5 10 Mostly Cloudy FEW022 SCT150 BKN220 61 49     64%     29.98 29.97      
Nov 15 05:53 NNW 3 10 Mostly Cloudy FEW020 SCT150 SCT200 BKN250 60 50     69%     29.97 29.97      
Nov 15 04:53 S 5 10 Mostly Cloudy FEW020 FEW180 BKN250 59 52     78%     29.97 29.96      
Nov 15 03:53 SE 5 10 Mostly Cloudy FEW020 FEW180 BKN250 60 51     72%     29.95 29.95      
Nov 15 02:53 E 3 10 Mostly Cloudy FEW020 FEW180 BKN250 58 53     84%     29.96 29.95      
Nov 15 01:53 E 5 10 Mostly Cloudy FEW020 FEW180 BKN250 60 55     83%     29.97 29.96      
Nov 15 00:53 3 10 Mostly Cloudy FEW020 FEW180 BKN250 62 58     86%     29.99 29.98      
Jun 12 02:53 E 6 10 Mostly Clear FEW090 FEW220 57 51     81%     29.97 29.96      
Jun 10 23:53 SW 6 10 Clear   63 57     81%     29.87 29.86      
Jun 10 06:53 WSW 6 10 Cloudy BKN020 OVC026 62 58     86%     29.88 29.87      
Jun 10 05:53 WSW 3 10 Mostly Cloudy BKN023 62 57     84%     29.87 29.86      
Jun 09 15:53 WSW 14 10 Partly Cloudy FEW013 SCT100 69 60     73%     29.91 29.9      
Jun 09 12:53 WSW 14 9 Mostly Clear FEW017 FEW120 70 55     59%     29.96 29.95      
Jun 09 00:53 SSW 3 10 Mostly Clear FEW011 61 56     83%     29.94 29.93      
Jun 08 16:53 WSW 21 10 Clear and Windy   67 57     71%     29.95 29.95      
Jun 08 05:53 W 7 4 Clear   61 60     97%     29.99 29.98 0    
Jun 07 15:53 WSW 13 10 Mostly Clear FEW022 68 59     73%     29.94 29.93      
Jun 07 12:53 7 7 Cloudy OVC016 65 59     81%     29.98 29.98      
Jun 07 10:53 WSW 9 6 Haze SCT012 OVC014 63 59     87%     29.97 29.97     0
Jun 07 09:53 WSW 7 5 Fog/Mist BKN013 OVC018 63 59     87%     29.96 29.96